| time (UTC) | temp F | wind direction | speed knots | gust knots | rain 1hr in | rain 24hr in | rain mn in | humidity % | barometer mb |
| 20260506050328 | 56 | 302 | 0.0 | 0.0 | 0.00 | 0.00 | 0.00 | 85 | 1010.8 |
| 20260506044823 | 57 | 327 | 0.0 | 0.0 | 0.00 | 0.00 | 0.00 | 85 | 1010.7 |
| 20260506043322 | 57 | 297 | 0.0 | 0.0 | 0.00 | 0.00 | 0.00 | 85 | 1010.6 |
| 20260506041837 | 58 | 355 | 0.0 | 0.0 | 0.00 | 0.00 | 0.00 | 85 | 1010.4 |
| 20260506040333 | 59 | 318 | 0.0 | 0.0 | 0.00 | 0.00 | 0.00 | 85 | 1010.3 |
| 20260506034830 | 59 | 293 | 0.0 | 0.0 | 0.00 | 0.00 | 0.00 | 86 | 1010.2 |
| 20260506033328 | 59 | 313 | 0.0 | 0.0 | 0.00 | 0.00 | 0.00 | 86 | 1010.1 |
| 20260506031823 | 60 | 316 | 0.0 | 0.0 | 0.00 | 0.00 | 0.00 | 86 | 1009.7 |
| 20260506030338 | 60 | 344 | 0.0 | 0.0 | 0.00 | 0.00 | 0.00 | 86 | 1009.4 |
| 20260506024827 | 61 | 329 | 0.0 | 0.0 | 0.00 | 0.00 | 0.00 | 86 | 1009.2 |
| 20260506023337 | 62 | 290 | 0.0 | 0.0 | 0.00 | 0.00 | 0.00 | 85 | 1008.9 |
| 20260506021823 | 63 | 321 | 0.0 | 0.0 | 0.00 | 0.00 | 0.00 | 85 | 1008.7 |
| 20260506020335 | 65 | 360 | 0.0 | 0.0 | 0.00 | 0.00 | 0.00 | 84 | 1008.3 |
| 20260506014848 | 68 | 316 | 0.0 | 0.0 | 0.00 | 0.00 | 0.00 | 84 | 1008.0 |
| 20260506013341 | 69 | 310 | 0.0 | 0.0 | 0.00 | 0.00 | 0.00 | 83 | 1007.7 |
| 20260506011855 | 70 | 348 | 0.0 | 0.0 | 0.00 | 0.00 | 0.00 | 84 | 1007.0 |
| 20260506010319 | 70 | 326 | 0.0 | 0.0 | 0.00 | 0.00 | 0.00 | 83 | 1006.7 |
| 20260506004823 | 71 | 325 | 0.0 | 0.0 | 0.00 | 0.00 | 0.00 | 81 | 1006.8 |
| 20260506003326 | 72 | 306 | 0.0 | 0.0 | 0.00 | 0.00 | 0.00 | 81 | 1007.0 |
| 20260506001824 | 75 | 286 | 0.0 | 0.0 | 0.00 | 0.00 | 0.00 | 78 | 1006.2 |
| 20260506000322 | 76 | 261 | 0.0 | 0.0 | 0.00 | 0.00 | 0.00 | 75 | 1006.1 |
| 20260505234831 | 78 | 309 | 0.0 | 0.0 | 0.00 | 0.00 | 0.00 | 72 | 1005.9 |
| 20260505233359 | 79 | 286 | 0.0 | 0.0 | 0.00 | 0.00 | 0.00 | 69 | 1005.8 |
| 20260505231850 | 80 | 300 | 0.0 | 0.0 | 0.00 | 0.00 | 0.00 | 70 | 1005.5 |
| 20260505230321 | 83 | 286 | 0.0 | 0.0 | 0.00 | 0.00 | 0.00 | 65 | 1005.2 |
| 20260505224832 | 84 | 172 | 0.0 | 0.0 | 0.00 | 0.00 | 0.00 | 75 | 1004.9 |
| 20260505223325 | 85 | 171 | 0.0 | 0.0 | 0.00 | 0.00 | 0.00 | 75 | 1004.6 |
| 20260505163319 | 76 | 167 | 0.0 | 0.9 | 0.00 | 0.00 | 0.00 | 83 | 1005.9 |
| 20260505161833 | 77 | 158 | 0.0 | 7.0 | 0.00 | 0.00 | 0.00 | 84 | 1005.6 |
| 20260505160322 | 76 | 173 | 0.0 | 5.2 | 0.00 | 0.00 | 0.00 | 84 | 1005.5 |
| 20260505153337 | 75 | 157 | 0.9 | 6.1 | 0.00 | 0.00 | 0.00 | 85 | 1005.5 |
| 20260505151842 | 75 | 175 | 0.0 | 10.4 | 0.00 | 0.00 | 0.00 | 86 | 1005.5 |
| 20260505150357 | 74 | 159 | 0.0 | 0.9 | 0.00 | 0.00 | 0.00 | 86 | 1005.6 |
| 20260505140419 | 72 | 164 | 0.0 | 10.4 | 0.00 | 0.00 | 0.00 | 89 | 1005.2 |